Terug naar catalogus

KUIPER-00184

ActiefCommunicatieLEO
NORAD 67139·PAYLOAD·🇺🇸 United States

Gelanceerd Dec 15, 2025 vanaf Cape Canaveral Space Force Station

Loading…

Volgende Passages (komende 24 uur)

TLE

VersSource: CelesTrak SupGP

Epoch: Sep 14, 2026, 20:30 UTC

1 67139C 25301G   26257.85462963  .00000060  00000+0  79017-5 0  2573
2 67139  51.8988 304.1025 0000451  82.9901 125.8587 14.79920886    12

Volg KUIPER-00184 in realtime met AllMySat

Download on the App Store